Voltar ao catálogo

CZ-3C DEB

LostGTO
NORAD 42480·DEBRIS·🇨🇳 China

Lançado Feb 24, 2012 de Xichang Satellite Launch Center

Loading…

TLE

ObsoletoSource: Space-Track

Época: Aug 9, 2024, 04:36 UTC

1 42480U 12008AQ  24222.19201209 -.00000162  00000-0  00000-0 0  9995
2 42480  21.7731  25.7405 7008168 247.6076  28.1842  2.23459219 78924

Acompanhe CZ-3C DEB em tempo real com AllMySat

Download on the App Store